Tracking 28794 objects as of 19-Apr-2024
HD Live streaming from Space Station
objects crossing your sky now

STARLINK-1713

Track STARLINK-1713 now!
10-day predictions
STARLINK-1713 is classified as:


NORAD ID: 46360
Int'l Code: 2020-062AM
Perigee: 553.6 km
Apogee: 555.1 km
Inclination: 53.1 °
Period: 95.6 minutes
Semi major axis: 6925 km
RCS: Unknown
Launch date: September 3, 2020
Source: United States (US)
Launch site: AIR FORCE EASTERN TEST RANGE (AFETR)
Your satellite tracking list
Your tracking list is empty




NASA's NSSDC Master Catalog

Two Line Element Set (TLE):
1 46360U 20062AM  24110.48546316  .00003341  00000-0  24306-3 0  9993
2 46360  53.0533 185.5650 0001053  98.2497 261.8612 15.06401201201063
Source of the keplerian elements: AFSPC